CZ-6A DEB, 54947

Orbit data source: Space-Track

CZ-6A DEB, 54947 is space debris in SSO originally from a launch on Fri, 11 Nov 2022 UTC launched from the Taiyaun Space Center, China (TSC). Debris objects in space refer to the collection of defunct objects orbiting the Earth. Examples of debris include non-operational satellites, rocket bodies, and fragments generated from explosions, collisions, or faulty payload assembly.

Loading next visibility...
Identifier
54947, 2022-151SL
Orbit
SSO
Country
Flag of CNCN / PRC
Related business
Manufacturer
SAST
Mission
Spacecraft
Bus & Motor
Unknown
Mass
Unknown
Launch date (UTC)
2022-11-11 (4 years ago)
Launch vehicle
Unknown
Launch site
Taiyaun Space Center, China (TSC)
Object type
Payload
Rocket body
Debris
Shape & HBR
Unknown shape, 0.1 m
Radar Cross Section
Small (<0.1 m²)

Expand to show TLE details & history
Last TLE update: 19 hours ago

TLE from 19 hours ago
0 CZ-6A DEB
1 54947U 22151SL  26236.02303101  .00416184  00000-0  52211-2 0  9996
2 54947  99.0901  77.3352 0015397 308.7961  51.1914 15.58207926202870
Epoch: 2026-08-24T00:33Z
TLE epoch observation values (Epoch: 2026-08-24T00:33:09.879Z)
Latitude
0.00003°
Longitude
96.73334°
Altitude
389.406 km
Speed
7.68 km/s
True Right ascension
05h 09m 20s
True Declination
0° 00' 00"
Sunlit
Object was in daylight at epoch
Visualization orbit readout
Latitude
Unknown
Longitude
Unknown
Altitude
Unknown
Speed
Unknown
Apparent Right ascension
Unknown
Apparent Declination
Unknown
Sunlit
N/A
Visualization observer readout
Local Sidereal Time
10:51:06
Azimuth
Unknown
Elevation
Unknown
Doppler factor
Unknown
Orbital elements
Apogee altitude
400.261 km
Perigee altitude
379.419 km
Semi-major axis
6,767.977 km
Eccentricity
0.00154
Inclination
99.0901°
RAAN
77.3352°
Arg. of periapsis
308.7961°
True anomaly
51.32905°
Mean anomaly
51.1914°
Eccentric anomaly
51.26021°
Mean motion
3.89812 °/min
Orbital period
92.35 mins
BSTAR
0.0052211
Loading maneuver chart data...
Computing Atmospheric mass density...
Loading historical data...
Loading historical data...
Loading historical data...
Loading historical data...
Loading historical data...
Loading historical data...
Loading historical data...

Documentation

Showing up to 5 results
|